Location: La Pavona
(41.7167°N, 12.6167°E)
Time: 23:34:11
(UTC+00:00)

Daily predictions for brighter satellites

Satellite Brightness Start Highest point End
(mag) Time Altitude Azimuth Time Altitude Azimuth Time Altitude Azimuth
Unknown 4.0 18:24:37 10° NW 18:28:41 54° NNE 18:32:44 10° ESE
SAR-Lupe-2 4.2 18:26:40 10° N 18:30:15 64° WNW 18:33:48 10° SSW
Unknown 4.0 18:26:15 10° NW 18:30:21 55° NNE 18:34:25 10° ESE
RESURS DK-1 4.1 18:29:38 10° SW 18:33:32 39° WNW 18:37:28 10° N
Unknown 3.9 18:29:36 10° NW 18:33:42 58° NNE 18:37:48 10° ESE
Starlink (trailer) 3.9 18:31:13 10° NW 18:35:20 60° NE 18:39:25 10° ESE
Unknown 3.8 18:32:53 10° NW 18:37:00 62° NE 18:41:07 10° ESE
H-2A R/B 2.6 18:32:34 10° SE 18:37:11 37° ENE 18:41:43 10° N
Unknown 3.5 18:34:09 10° NW 18:38:04 83° SW 18:41:57 10° SE
Unknown 3.5 18:34:47 10° NW 18:38:37 74° SW 18:42:25 10° SE
Unknown 3.8 18:34:33 10° NW 18:38:40 63° NE 18:42:42 10° ESE
ADEOS Rocket 3.8 18:33:22 10° NE 18:38:47 32° E 18:44:39 10° SSE
Okean 1-7 3.0 18:35:44 10° N 18:40:10 83° E 18:44:33 10° S
Shenzhou-11 Module 2.3 18:37:59 10° SW 18:40:36 39° SSE 18:43:15 10° E
Cosmos 2369 Rocket 4.2 18:36:09 10° NW 18:40:54 28° WSW 18:45:36 10° SSW
Cosmos 1538 Rocket 4.0 18:38:28 10° NNW 18:43:37 64° ENE 18:48:44 10° SSE
Ariane Rocket 4.3 18:39:19 10° S 18:44:06 42° W 18:48:54 10° NNW
Unknown 3.5 18:41:08 10° NW 18:45:12 83° NE 18:48:55 12° SE
Unknown 3.7 18:41:11 10° NW 18:45:20 71° NE 18:49:06 12° ESE
Unknown 3.7 18:42:50 10° NW 18:47:00 73° NE 18:50:41 13° ESE
Meteor 1-25 Rocket 4.3 18:42:02 10° S 18:47:44 82° E 18:53:33 10° NNE
FREGAT/IRIS 3.6 18:45:42 10° S 18:48:23 43° W 18:51:06 10° NNW
Unknown 3.6 18:44:32 10° NW 18:48:42 76° NE 18:52:19 13° ESE
Cosmos 2221 Rocket 3.9 18:45:06 10° N 18:49:23 48° ENE 18:53:39 10° SSE
Aureole 2 Rocket 3.6 18:48:04 10° NNE 18:49:56 17° ENE 18:51:03 14° E
Unknown 3.6 18:46:11 10° NW 18:50:21 78° NE 18:53:55 14° ESE
Unknown 3.6 18:47:56 10° NW 18:52:06 84° NE 18:55:37 14° SE
Unknown 3.6 18:49:32 10° NW 18:53:42 83° NE 18:57:08 15° SE
Unknown 3.6 18:51:17 10° NW 18:55:27 88° NE 18:58:50 15° SE
GENESIS II 4.3 18:51:57 10° SSW 18:55:51 58° ESE 18:59:52 10° NE
Unknown 3.6 18:52:49 10° NW 18:56:59 87° NE 19:00:17 16° SE
Unknown 3.6 18:54:31 10° NW 18:58:40 90° NE 19:01:54 16° SE
Resurs 1-3 4.0 18:54:40 10° SE 18:58:51 46° ENE 19:03:03 10° N
Unknown 3.6 18:54:48 10° NW 18:58:59 87° NE 19:02:12 16° SE
Abrixas rocket 3.0 18:57:41 10° W 19:00:39 47° NNW 19:03:39 10° NE
Meteor 1-14 Rocket 4.3 18:54:44 10° S 19:00:42 80° E 19:06:40 10° NNE
USA 267 4.4 18:54:55 10° NE 19:01:03 44° NNW 19:07:10 10° W
Okean 3 4.0 18:57:33 10° N 19:01:29 38° ENE 19:04:34 15° SE
Unknown 3.6 18:59:29 10° NW 19:03:38 83° SW 19:06:41 18° SE
BREEZE-M DEB (TANK) 3.1 19:02:39 10° NW 19:04:42 29° NNE 19:07:51 13° E
Unknown 3.6 19:00:53 10° NW 19:04:59 79° SW 19:07:57 18° SE
Unknown 3.6 19:01:06 10° NW 19:05:17 81° SW 19:08:15 18° SE
Meteor 1-19 Rocket 4.4 19:01:09 10° N 19:06:50 60° ENE 19:12:35 10° SSE
OAO 3 Rocket 3.9 19:02:25 10° WSW 19:06:52 36° S 19:09:45 19° ESE
Unknown 3.6 19:02:48 10° NW 19:06:57 78° SW 19:09:52 19° SE
Okean 1 3.2 19:03:53 10° N 19:07:52 81° E 19:11:50 10° S
Unknown 3.7 19:04:28 10° NW 19:08:36 76° SW 19:11:28 19° SE
Unknown 3.7 19:07:49 10° NW 19:11:57 71° SW 19:14:41 20° SE
Cosmos 44 3.3 19:08:56 10° NW 19:13:21 65° WSW 19:16:56 14° SSE
Unknown 3.8 19:09:28 10° WNW 19:13:35 68° SW 19:16:17 21° SE
Unknown 3.8 19:11:07 10° WNW 19:15:14 66° SW 19:17:51 21° SE
CZ-2C R/B 3.8 19:12:24 10° NE 19:16:29 22° E 19:17:52 20° ESE
MetOp-A 4.3 19:12:11 15° SSE 19:16:35 56° ENE 19:21:49 10° N
Unknown 3.8 19:12:44 10° WNW 19:16:51 66° SW 19:19:24 22° SE
BREEZE-M DEB (TANK) 4.1 19:14:29 10° W 19:18:20 44° NNW 19:24:13 10° ENE
Unknown 3.9 19:14:31 10° WNW 19:18:36 62° SW 19:21:06 22° SSE
Unknown 3.8 19:15:56 10° WNW 19:20:02 66° SW 19:22:26 24° SE
SJ 16-02 2.8 19:21:59 19° E 19:21:59 19° E 19:24:38 10° NE
ASTRO E2 4.5 19:19:15 10° SW 19:21:53 17° S 19:22:48 16° S
COSMOS 2406 3.4 19:17:16 10° S 19:22:42 50° ESE 19:28:12 10° NE
Unknown 3.9 19:19:15 10° WNW 19:23:21 61° SW 19:25:37 25° SSE
Cosmos 1980 Rocket 4.3 19:22:13 10° NNE 19:24:18 12° NE 19:26:24 10° ENE
ASTEX 1 3.9 19:19:43 10° NNE 19:24:22 39° E 19:27:03 22° SSE
Spot 2 Rocket 4.0 19:22:08 22° SE 19:24:56 42° ENE 19:29:42 10° N
Unknown 3.9 19:20:57 10° WNW 19:25:03 59° SW 19:27:15 25° SSE
BREEZE M DEB (TANK) 1.2 19:24:12 10° SW 19:26:14 56° SE 19:26:59 36° E
Unknown 4.1 19:22:49 10° WNW 19:26:52 52° SW 19:29:03 24° SSE
Unknown 4.0 19:24:14 10° WNW 19:28:18 55° SW 19:30:24 26° SSE
Resurs 01 Rocket 1.5 19:26:27 19° SSE 19:29:32 77° ENE 19:33:57 10° N
DMSP B5D2-2 4.2 19:24:46 10° NNE 19:29:53 51° E 19:34:41 12° S
Unknown 4.1 19:25:57 10° WNW 19:29:59 53° SW 19:32:02 26° SSE
Unknown 4.2 19:29:18 10° WNW 19:33:19 50° SW 19:35:14 27° SSE
ARGOS 3.4 19:29:01 10° S 19:34:21 69° WSW 19:39:42 10° NNW
USA 234 3.5 19:29:33 19° SSE 19:34:25 66° SW 19:40:57 10° NW
Exosat Rocket 4.3 19:26:18 10° NNW 19:34:47 73° ENE 19:38:41 24° SE
Unknown 4.2 19:30:57 10° WNW 19:34:56 48° SW 19:36:48 27° SSE
Unknown 4.3 19:32:38 10° WNW 19:36:37 47° SW 19:38:25 28° SSE
Unknown 4.3 19:34:20 10° WNW 19:38:18 45° SW 19:40:02 28° S
Terra 3.9 19:38:54 12° ENE 19:39:30 12° ENE 19:41:28 10° NE
Unknown 4.4 19:35:58 10° WNW 19:39:55 43° SW 19:41:36 28° S
Cosmos 1536 3.3 19:43:37 39° ESE 19:43:53 40° E 19:47:43 10° NNE
Iridium 2 4.3 19:44:31 35° E 19:44:31 35° E 19:47:46 10° NNE
Cosmos 1500 3.2 19:48:19 50° SE 19:48:55 58° E 19:52:44 10° NNE
Cosmos 1386 Rocket 4.4 19:44:14 10° N 19:50:21 74° E 19:53:58 27° SSE
Cosmos 2112 Rocket 3.9 19:45:32 10° NNW 19:50:47 72° ENE 19:52:51 37° SE
Cosmos 1733 Rocket 3.5 19:47:10 10° SSW 19:51:25 61° W 19:55:42 10° N
CZ-2C R/B 2.9 19:49:37 26° S 19:52:18 79° WSW 19:57:06 10° NNW
Cosmos 1378 Rocket 3.6 19:47:59 10° N 19:52:20 58° E 19:53:19 46° SE
Meteor 2-4 Rocket 3.6 19:48:20 10° N 19:53:43 85° W 19:56:48 26° S
TSX-5 3.6 19:50:27 10° NNW 19:54:00 74° ENE 19:54:44 56° SE
USA 245 4.2 19:54:24 40° ESE 19:55:33 49° ENE 20:00:51 10° N
Aureole 3 Rocket 2.4 19:57:12 55° S 19:57:57 83° E 20:01:12 10° N
Cosmos 1674 Rocket 3.5 19:53:46 10° N 19:58:08 83° W 19:59:40 40° S
SPOT 5 4.0 20:00:03 24° ENE 20:00:03 24° ENE 20:03:23 10° NNE
Meteor 2-21 Rocket 4.5 19:59:19 10° N 20:05:28 63° E 20:07:37 40° SE
Cosmos 44 Rocket 3.1 20:01:27 10° NW 20:06:14 84° WSW 20:07:18 54° SSE
Shenzhou-11 Module 4.1 20:13:12 10° W 20:14:22 22° W 20:14:22 22° W
H-2A R/B 3.9 20:12:32 10° SSW 20:16:40 25° W 20:20:45 10° NW
Cosmos 1975 Rocket 3.7 20:14:37 10° N 20:18:18 41° ENE 20:18:18 41° ENE
Cosmos 1898 Rocket 3.6 20:13:47 10° SSW 20:19:02 75° WNW 20:24:19 10° NNE
Meteor 1-11 Rocket 4.1 20:15:34 14° SSW 20:20:45 70° W 20:26:44 10° N
EO 1 Del DPAF 4.4 20:18:11 10° NNE 20:20:26 33° NE 20:20:26 33° NE
Thor Agena Rocket 4.0 20:18:31 10° NNE 20:22:53 44° ENE 20:22:53 44° ENE
Cosmos 1709 Rocket 3.8 20:17:49 10° N 20:23:58 81° E 20:25:44 50° SSE
ADEOS Rocket 4.3 20:18:44 10° N 20:24:19 42° WNW 20:30:27 10° SW
GP-B 3.5 20:23:20 10° N 20:27:43 59° W 20:28:44 46° SW
Cosmos 1680 Rocket 4.4 20:24:11 10° NNW 20:29:08 43° WSW 20:30:56 32° SSW
Cosmos 1833 Rocket 2.5 20:29:34 50° S 20:31:04 79° ESE 20:36:44 10° NNE
Cosmos 2082 Rocket 2.4 20:31:50 52° E 20:31:50 52° E 20:36:43 10° NNE
Geosat 3.9 20:31:47 69° S 20:32:23 81° WSW 20:37:27 10° NNW
Cosmos 2315 Rocket 3.9 20:31:21 40° S 20:33:52 90° E 20:40:15 10° N
Cosmos 1656 3.6 20:29:29 10° NNW 20:35:10 78° WSW 20:36:04 62° S
Cosmos 2278 3.8 20:31:11 10° NNW 20:36:46 57° ENE 20:37:08 56° E
CARTOSAT-1 4.2 20:38:54 46° NNE 20:38:54 46° NNE 20:42:15 10° N
ERS-1 Rocket 2.8 20:38:36 83° SE 20:38:45 85° ENE 20:43:48 10° NNW
Meteor 2-8 Rocket 4.3 20:40:41 66° SE 20:41:16 71° E 20:47:18 10° NNE
SL-16 R/B 4.2 20:40:57 10° N 20:44:21 16° NE 20:45:13 15° ENE
Landsat 7 3.8 20:46:18 77° WNW 20:46:18 77° WNW 20:50:55 10° NNW
Cosmos 1697 Rocket 2.5 20:40:47 10° NNW 20:46:29 78° ENE 20:46:43 77° E
Cosmos 1666 4.1 20:48:51 35° N 20:48:51 35° N 20:51:13 10° N
Cosmos 1066 Rocket 3.9 20:42:45 10° N 20:48:11 88° E 20:48:14 87° ESE
Cosmos 2098 Rocket 4.2 20:45:47 10° NNW 20:50:19 49° W 20:51:29 42° SW
IGS 5A 4.3 20:53:46 49° NW 20:53:46 49° NW 20:56:56 10° NNW
CZ-2C R/B 3.5 20:51:56 10° N 20:56:58 47° WNW 20:59:23 28° SW
Okean 2 Rocket 4.5 20:59:34 31° NNE 20:59:34 31° NNE 21:01:57 10° NNE
SJ 16-02 2.7 20:58:54 34° W 20:59:46 37° WNW 21:03:54 10° N
Cosmos 1980 Rocket 2.4 21:03:48 10° NNW 21:08:52 62° NNE 21:08:52 62° NNE
SPOT 1/Viking Rocket 4.2 21:11:20 48° W 21:11:20 48° W 21:16:23 10° NNW
CZ-4C R/B 4.4 21:20:47 13° NE 21:20:47 13° NE 21:21:25 10° NE
Terra 2.6 21:17:47 50° NNW 21:17:47 50° NNW 21:21:21 10° NNW
NOSS 3-1 (C) 4.0 21:12:52 10° NNW 21:20:29 74° NE 21:21:42 64° ESE
MOS 1 Rocket 3.9 21:16:29 10° N 21:21:25 65° NW 21:21:25 65° NW
Cosmos 2369 4.4 21:18:57 10° NW 21:23:56 44° W 21:23:56 44° W
FALCON 9 R/B 3.9 21:22:18 10° WSW 21:40:03 48° SSW 21:40:03 48° SSW
Cosmos 2322 Rocket 3.3 21:52:52 10° NNW 21:56:51 38° NNE 21:56:51 38° NNE
Cosmos 2154 Rocket 4.4 21:56:48 10° NNW 22:01:57 59° NW 22:01:57 59° NW
Nadezhda 1 Rocket 4.5 22:05:54 54° NW 22:05:54 54° NW 22:11:12 10° N
Cosmos 2082 Rocket 4.2 22:13:36 20° W 22:15:38 24° NW 22:20:10 10° N
USA 229 DEB 4.5 22:10:36 10° NW 22:16:28 45° W 22:16:28 45° W
USA 229 4.5 22:10:41 10° NW 22:16:34 45° W 22:16:34 45° W
NOSS 3-1 (A) 4.1 22:13:31 10° NW 22:20:39 73° W 22:20:39 73° W
SL-16 R/B 3.4 22:23:34 10° NNW 22:27:04 39° NNW 22:27:04 39° NNW
Mayak 1.5 22:32:32 10° N 22:33:41 17° NNW 22:33:41 17° NNW
Cosmos 2360 Rocket 3.5 22:42:43 10° NNW 22:46:10 36° N 22:46:10 36° N
Cosmos 2219 Rocket 4.1 22:50:27 10° N 22:54:23 23° NE 22:54:23 23° NE
CZ-4C R/B 3.6 23:05:56 34° NNW 23:05:56 34° NNW 23:10:21 10° NNE
USA 215 4.0 23:26:53 10° NE 23:31:10 44° ENE 23:31:10 44° ENE
COSMOS 2455 3.9 23:28:42 10° NNW 23:33:24 41° NNE 23:33:24 41° NNE
Cosmos 2333 Rocket 3.5 23:34:43 10° NNW 23:38:26 37° NNE 23:38:26 37° NNE
Cosmos 2322 Rocket 4.5 23:37:29 10° NW 23:38:38 15° WNW 23:38:38 15° WNW
SL-16 R/B 4.1 23:43:31 25° ENE 23:44:28 26° ENE 23:49:24 10° N
CZ-2D R/B 4.4 23:43:04 10° NE 23:45:21 17° ENE 23:45:21 17° ENE
